QPF
0.00 0.00 0.00 0.00 -0.00 0.00 -0.00 0.00 0.00 0.00 0.00 0.00 0.00 0.00 0.00 0.00 0.00 0.00 0.00 0.00 0.00 0.00 0.00 0.00 0.00 0.00 0.00 0.00 0.00 0.00 0.00 0.00 0.00 0.00 -0.00 0.00 -0.00 0.00 0.00 0.00 0.00 0.00
0.00 0.00 0.00 0.00 0.00 0.00 -0.00 0.00 0.00 0.00 0.00 0.00 0.00 0.00 0.00 0.00 0.00 0.00 0.00 0.00 0.00 0.00 0.00 0.00 0.00 0.00 0.00 0.00 0.00 0.00 0.00 0.00 0.00 0.00 0.00 0.00 0.00 -0.00 0.00 -0.00 -0.00 0.00
0.00 0.00 0.00 0.00 0.00 -0.00 0.00 0.00 0.00 0.00 0.00 0.00 0.00 0.00 0.00 0.00 0.00 0.00 0.00 0.00 0.00 0.00 0.00 0.00 0.00 0.00 0.00 0.00 0.00 0.00 0.00 0.00 0.00 0.00 0.00 0.00 0.00 0.00 0.00 0.00 -0.00 0.00
0.00 0.00 0.00 0.00 0.00 0.00 0.00 0.00 0.00 0.00 0.00 0.00 0.00 0.00 0.00 0.00 0.00 0.00 0.00 0.00 0.00 0.00 0.00 0.00 0.00 0.00 0.00 0.00 0.00 0.00 0.00 0.00 0.00 0.00 0.00 0.00 0.00 0.00 -0.00 -0.00 -0.00 -0.00
0.00 0.00 0.00 0.00 0.00 0.00 0.00 0.00 0.00 0.00 0.00 0.00 0.00 0.00 0.00 0.00 0.00 0.00 0.00 0.00 0.00 0.00 0.00 0.00 0.00 0.00 0.00 0.00 0.00 0.00 0.00 0.00 0.00 0.00 0.00 0.00 0.00 0.00 0.00 0.00 0.00 0.00
-0.00 0.00 0.00 -0.00 0.00 0.00 0.00 0.00 0.00 0.00 0.00 0.00 0.00 0.00 0.00 0.00 0.00 0.00 0.00 0.00 0.00 0.00 0.00 0.00 0.00 0.00 0.00 0.00 0.00 0.00 0.00 0.00 0.00 -0.00 -0.00 0.00 0.00 -0.00 0.00 0.00 0.00 0.00
0.00 0.00 0.00 0.00 0.00 0.00 0.00 0.00 0.00 0.00 0.00 0.00 0.00 0.00 0.00 0.00 0.00 0.00 0.00 0.00 0.00 0.00 0.00 0.00 0.00 0.00 0.00 0.00 0.00 0.00 -0.00 -0.00 0.00 0.00 0.00 0.00 0.00 0.00 0.00 0.00 0.00 0.00
0.00 0.00 -0.00 0.00 0.00 0.00 0.00 0.00 0.00 0.00 0.00 0.00 0.00 0.00 0.00 0.00 0.00 0.00 0.00 0.00 0.00 0.00 0.00 0.00 0.00 0.00 0.00 0.00 0.00 0.00 0.00 0.00 0.00 0.00 0.00 0.00 0.00 0.00 0.00 0.00 0.00 0.00
-0.00 -0.00 -0.00 0.00 0.00 0.00 0.00 -0.00 0.00 0.00 0.00 0.00 -0.00 0.00 0.00 0.00 0.00 0.00 -0.00 -0.00 0.05 0.02 0.01 0.00 0.00 0.00 0.00 0.00 0.00 0.00 0.00 0.00 -0.00 0.00 0.00 0.00 0.00 0.00 -0.00 -0.00 0.00 0.00
0.00 0.00 -0.00 0.00 0.00 0.00 0.00 -0.00 0.00 0.00 0.00 0.00 0.00 0.00 0.00 0.00 0.00 0.00 0.00 0.00 -0.00 0.00 0.00 0.00 0.00 0.00 0.00 0.00 0.00 0.00 0.00 0.00 0.00 0.00 0.00 0.00 0.00 0.00 0.00 0.00 -0.00 0.00
-0.00 0.00 0.00 -0.00 0.00 0.00 0.00 0.01 0.00 0.00 0.00 0.00 0.00 -0.00 -0.00 -0.00 0.00 -0.00 0.00 0.00 0.00 0.00 0.00 0.00 0.00 0.00 0.00 0.00 0.00 -0.00 0.00 0.00 -0.00 -0.00 0.00 -0.00 0.00 0.00 0.00 0.00 0.00 0.00
0.00 0.00 0.00 0.00 0.00 0.00 0.01 0.00 0.00 0.00 0.00 0.00 -0.00 -0.00 0.00 0.00 0.00 0.00 -0.00 -0.00 0.00 0.00 0.00 0.00 0.00 0.00 -0.00 -0.00 0.00 -0.00 0.00 0.00 0.00 0.00 0.00 0.00 0.00 0.00 0.00 -0.00 0.00 0.00
-0.00 0.00 0.00 0.00 0.00 0.00 0.00 0.00 0.00 -0.00 -0.00 0.00 0.00 -0.00 -0.00 -0.00 0.00 0.00 0.00 0.00 0.00 0.00 0.01 0.01 0.00 0.00 0.00 0.00 0.00 0.00 0.00 0.00 -0.00 0.00 0.00 0.00 0.00 0.00 0.00 0.00 0.00 -0.00
-0.00 0.00 0.00 0.00 0.00 0.00 -0.00 0.00 -0.00 -0.00 -0.00 -0.00 0.00 0.00 0.00 0.00 -0.00 0.00 -0.00 0.00 0.00 0.00 0.00 0.00 0.01 0.00 0.00 0.00 0.00 0.00 0.00 0.00 0.00 0.00 0.00 0.00 0.00 0.00 0.00 -0.00 0.00 -0.00
0.00 0.00 0.00 0.00 0.00 0.00 0.00 0.00 0.00 0.00 0.00 -0.00 0.00 0.00 -0.00 -0.00 -0.00 -0.00 0.00 0.00 0.00 0.00 0.00 0.01 0.01 0.00 0.00 0.00 0.00 0.00 0.00 0.00 0.00 0.00 0.00 0.00 0.00 0.00 0.00 0.00 0.00 0.00
0.00 0.00 0.00 0.00 0.00 0.00 0.00 0.00 -0.00 -0.00 0.00 -0.00 0.00 -0.00 0.00 -0.00 0.00 0.00 0.00 0.00 0.00 0.00 0.00 0.00 0.00 0.00 0.00 0.00 0.00 0.00 0.00 0.00 0.00 0.00 0.00 0.00 0.00 0.00 0.00 0.00 0.00 0.00
0.00 0.00 -0.00 0.00 0.00 0.00 -0.00 0.00 0.00 -0.00 0.00 0.00 0.00 0.00 0.00 0.00 0.00 0.00 0.00 -0.00 0.00 0.00 0.00 0.00 0.00 0.00 0.00 0.00 0.00 0.00 0.00 0.00 0.00 0.00 0.00 0.00 0.00 0.00 0.00 0.00 0.00 0.00
0.00 -0.00 0.00 0.00 0.00 0.00 0.00 0.00 0.00 0.00 0.00 -0.00 -0.00 0.00 0.00 0.00 0.00 -0.00 0.00 0.00 -0.00 0.00 0.00 0.00 0.00 0.00 0.00 0.00 0.00 0.00 0.00 0.00 0.00 0.00 0.00 0.00 0.00 0.00 0.00 0.00 0.00 0.00
-0.00 0.00 0.00 0.00 0.00 0.00 -0.00 -0.00 -0.00 0.00 0.00 0.00 0.00 0.00 0.00 0.00 0.00 0.00 0.00 0.00 0.00 0.00 0.00 0.00 0.00 0.00 0.00 0.00 0.00 0.00 0.00 0.00 0.00 0.00 0.00 0.00 0.00 0.00 0.00 0.00 0.00 0.03
0.00 -0.00 -0.00 -0.00 0.00 0.00 0.00 0.00 0.00 0.00 0.00 -0.00 0.00 0.00 0.00 0.00 0.00 0.00 0.00 0.00 -0.00 0.00 0.00 0.00 0.00 0.00 0.00 0.00 0.00 0.00 0.00 0.00 0.00 0.00 0.00 0.00 0.00 0.00 0.00 0.00 0.30 0.04
0.00 -0.00 -0.00 -0.00 -0.00 0.00 0.00 0.00 -0.00 -0.00 0.00 0.00 -0.00 0.00 0.00 0.00 0.01 0.00 0.00 0.00 -0.00 0.00 0.00 0.00 0.00 0.00 0.00 0.00 0.00 0.00 0.00 0.00 0.00 0.00 0.00 0.00 0.00 0.00 0.00 0.00 0.07 0.12
0.00 -0.00 -0.00 0.00 -0.00 0.00 0.00 0.00 0.00 0.00 0.00 0.00 0.00 0.00 -0.00 0.00 0.00 0.00 0.00 0.00 0.00 0.00 0.00 0.00 0.00 0.00 0.00 0.00 0.00 0.00 0.00 0.00 0.00 0.00 0.00 0.01 0.00 0.00 0.00 0.01 0.02 0.01
0.00 0.00 -0.00 0.00 0.00 0.00 0.00 0.00 0.00 0.00 0.00 0.00 0.00 0.00 0.00 0.00 -0.00 0.00 0.00 0.00 0.00 0.00 -0.00 0.00 0.00 0.00 0.00 0.00 0.00 0.00 0.00 0.00 -0.00 -0.00 0.00 0.00 0.00 0.00 0.01 0.04 0.00 0.00
-0.00 0.00 0.00 0.00 0.00 0.00 0.00 0.00 0.00 -0.00 0.00 -0.00 0.00 -0.00 -0.00 0.00 0.00 0.00 0.00 0.00 0.00 0.00 0.00 0.00 0.00 0.00 0.00 0.00 0.00 0.00 0.00 0.00 0.00 0.00 0.03 0.01 0.01 0.00 0.01 0.00 0.00 0.00
0.00 0.00 -0.00 0.00 -0.00 -0.00 0.00 0.00 -0.00 0.00 0.00 -0.00 0.00 0.00 0.00 0.00 0.00 0.00 0.00 0.00 0.00 0.00 0.00 0.00 0.00 0.01 0.00 0.00 0.00 -0.00 0.00 0.00 0.02 0.00 -0.00 -0.00 0.00 0.00 0.00 0.00 0.00 0.00
0.00 0.00 0.00 0.00 0.00 0.00 -0.00 0.00 -0.00 0.00 0.00 0.00 0.00 0.00 0.00 0.00 0.00 0.00 0.00 0.00 0.00 0.00 0.00 0.00 0.00 0.00 0.00 0.00 0.00 0.00 0.00 -0.00 0.00 0.01 0.00 0.00 0.00 0.00 0.00 0.00 0.03 0.02
MSLP
1010.68 1011.01 1011.41 1011.77 1011.97 1012.12 1012.45 1012.80 1012.97 1013.28 1013.53 1013.57 1014.01 1014.12 1014.24 1014.33 1014.28 1014.45 1014.68 1015.01 1015.36 1015.65 1015.80 1016.04 1016.21 1016.45 1016.53 1016.65 1016.80 1016.97 1017.04 1017.16 1017.12 1017.04 1017.36 1017.45 1017.48 1017.53 1017.68 1017.72 1017.77 1017.80
1010.36 1010.60 1010.92 1011.24 1011.60 1011.80 1012.04 1012.16 1012.57 1012.92 1013.24 1013.36 1013.48 1013.68 1013.77 1013.97 1014.21 1014.41 1014.80 1015.12 1015.41 1015.60 1015.65 1015.89 1016.12 1016.33 1016.48 1016.60 1016.84 1017.09 1017.21 1017.24 1017.41 1016.89 1017.28 1017.41 1017.48 1017.41 1017.57 1017.60 1017.65 1017.53
1010.01 1010.33 1010.68 1011.12 1011.41 1011.65 1011.77 1011.89 1012.12 1012.53 1012.89 1013.04 1013.12 1013.28 1013.53 1013.68 1014.12 1014.45 1014.77 1015.09 1015.41 1015.53 1015.68 1015.80 1016.01 1016.21 1016.41 1016.53 1016.72 1017.01 1017.21 1017.33 1017.45 1016.97 1017.09 1017.41 1017.33 1017.41 1017.33 1017.01 1017.04 1017.21
1009.60 1009.84 1010.21 1010.57 1010.80 1011.16 1011.36 1011.68 1011.97 1012.24 1012.41 1012.80 1013.01 1013.04 1013.24 1013.45 1013.80 1014.28 1014.65 1014.97 1015.24 1015.45 1015.53 1015.68 1015.84 1016.04 1016.28 1016.45 1016.60 1016.84 1016.92 1017.12 1017.09 1017.01 1017.04 1017.12 1017.28 1017.36 1017.33 1017.24 1017.33 1017.36
1009.21 1009.53 1009.72 1010.04 1010.33 1010.65 1011.01 1011.48 1011.72 1011.97 1012.21 1012.33 1012.57 1012.77 1013.12 1013.41 1013.68 1014.04 1014.36 1014.72 1014.92 1015.28 1015.45 1015.68 1015.68 1015.84 1016.09 1016.33 1016.48 1016.80 1016.84 1017.01 1016.92 1016.97 1017.21 1017.28 1017.16 1017.28 1017.28 1017.33 1017.45 1017.57
1008.72 1009.01 1009.33 1009.72 1010.01 1010.45 1010.84 1011.16 1011.33 1011.53 1011.84 1012.04 1012.33 1012.48 1012.89 1013.12 1013.36 1013.60 1013.89 1014.24 1014.45 1014.72 1015.04 1015.33 1015.57 1015.57 1015.72 1016.04 1016.21 1016.48 1016.57 1016.68 1016.48 1016.65 1016.97 1017.16 1017.12 1016.97 1016.97 1017.12 1017.36 1017.53
1008.41 1008.72 1009.09 1009.28 1009.72 1010.01 1010.48 1010.72 1010.97 1011.21 1011.48 1011.53 1011.89 1012.41 1012.57 1012.97 1013.16 1013.36 1013.65 1013.89 1014.01 1014.16 1014.45 1014.80 1015.09 1015.16 1015.04 1015.36 1015.84 1016.16 1016.33 1016.33 1016.24 1016.36 1016.77 1016.89 1017.04 1017.21 1017.09 1017.16 1017.28 1017.41
1007.84 1008.16 1008.57 1008.97 1009.45 1009.72 1010.12 1010.41 1010.68 1011.04 1011.12 1011.24 1011.80 1011.97 1012.04 1012.41 1012.77 1012.92 1013.16 1013.53 1013.77 1014.09 1014.36 1014.45 1014.36 1014.45 1014.80 1015.16 1015.65 1015.97 1016.21 1016.16 1016.28 1016.48 1016.77 1016.92 1016.97 1017.21 1017.16 1017.09 1017.09 1017.28
1007.33 1007.80 1008.21 1008.68 1009.12 1009.33 1009.65 1009.89 1010.24 1010.57 1010.57 1010.80 1011.12 1011.33 1011.45 1011.68 1012.09 1012.28 1012.72 1013.12 1013.41 1013.68 1014.01 1014.36 1014.72 1014.72 1014.68 1014.97 1015.45 1015.77 1015.97 1015.92 1015.84 1016.12 1016.57 1016.80 1016.97 1016.97 1016.92 1016.84 1017.01 1017.04
1007.04 1007.28 1007.72 1008.16 1008.65 1008.80 1009.09 1009.21 1009.41 1009.80 1009.92 1010.28 1010.57 1010.68 1011.04 1011.04 1011.24 1011.72 1012.24 1012.72 1013.09 1013.48 1013.92 1014.28 1014.53 1014.65 1014.57 1014.72 1014.89 1015.12 1015.48 1015.68 1015.68 1015.80 1016.01 1016.28 1016.48 1016.48 1016.48 1016.57 1016.65 1016.80
1006.60 1006.89 1007.36 1007.72 1007.97 1008.04 1008.33 1008.28 1008.36 1008.84 1009.28 1009.57 1009.77 1009.97 1010.21 1010.57 1010.97 1011.24 1011.80 1012.28 1012.77 1013.21 1013.68 1013.92 1014.09 1014.24 1014.48 1014.60 1014.53 1014.48 1014.84 1015.16 1015.41 1015.57 1015.68 1015.84 1015.97 1016.04 1016.09 1016.16 1016.28 1016.45
1006.04 1006.41 1006.84 1007.09 1007.28 1007.36 1007.41 1007.45 1007.68 1008.24 1008.68 1008.97 1009.09 1009.36 1009.65 1010.12 1010.60 1010.92 1011.33 1011.89 1012.28 1012.68 1013.09 1013.45 1013.72 1013.97 1014.21 1014.33 1014.28 1014.24 1014.48 1014.77 1015.01 1015.21 1015.28 1015.41 1015.53 1015.68 1015.77 1015.77 1015.92 1016.04
1005.45 1005.80 1006.04 1006.36 1006.65 1006.77 1006.77 1007.01 1007.33 1007.65 1007.84 1008.28 1008.36 1008.65 1009.16 1009.77 1010.16 1010.60 1010.92 1011.41 1011.84 1012.16 1012.57 1012.97 1013.36 1013.68 1013.97 1014.04 1013.92 1013.80 1014.04 1014.36 1014.57 1014.80 1014.97 1015.01 1015.12 1015.24 1015.28 1015.33 1015.41 1015.57
1004.77 1004.92 1005.33 1005.72 1005.97 1006.12 1006.33 1006.57 1006.97 1007.12 1007.24 1007.65 1008.04 1008.41 1008.65 1009.09 1009.57 1010.04 1010.48 1010.89 1011.33 1011.65 1012.01 1012.41 1012.92 1013.33 1013.60 1013.72 1013.68 1013.57 1013.72 1014.01 1014.24 1014.41 1014.60 1014.72 1014.80 1014.92 1014.97 1014.92 1014.97 1015.04
1004.24 1004.60 1004.97 1005.33 1005.53 1005.72 1005.92 1006.33 1006.60 1006.72 1006.84 1007.12 1007.57 1007.92 1008.04 1008.36 1008.89 1009.36 1010.01 1010.57 1010.92 1011.33 1011.72 1012.04 1012.53 1012.92 1013.09 1013.33 1013.57 1013.57 1013.45 1013.65 1013.84 1014.09 1014.21 1014.45 1014.60 1014.65 1014.65 1014.72 1014.77 1014.84
1003.97 1004.36 1004.80 1005.09 1005.41 1005.60 1005.68 1005.97 1006.24 1006.36 1006.48 1006.65 1007.04 1007.48 1007.80 1008.12 1008.60 1009.09 1009.53 1010.01 1010.53 1011.01 1011.36 1011.80 1012.24 1012.45 1012.57 1012.84 1013.01 1013.09 1013.16 1013.21 1013.36 1013.60 1013.84 1014.04 1014.33 1014.48 1014.53 1014.48 1014.48 1014.60
1003.84 1004.28 1004.57 1004.97 1005.09 1005.33 1005.53 1005.84 1006.09 1006.16 1006.33 1006.65 1006.97 1007.41 1007.77 1008.16 1008.57 1008.97 1009.33 1009.60 1010.09 1010.53 1011.01 1011.41 1011.77 1011.97 1012.24 1012.60 1012.84 1012.89 1012.84 1012.92 1013.04 1013.16 1013.36 1013.65 1013.84 1014.16 1014.41 1014.45 1014.36 1014.28
1003.65 1004.01 1004.45 1004.77 1005.01 1005.28 1005.45 1005.68 1005.97 1006.24 1006.57 1006.92 1007.33 1007.68 1007.89 1008.12 1008.48 1008.89 1009.12 1009.36 1009.80 1010.16 1010.57 1010.97 1011.28 1011.53 1011.97 1012.28 1012.57 1012.72 1012.72 1012.68 1012.68 1012.77 1012.89 1013.16 1013.45 1013.68 1013.89 1014.04 1014.16 1014.09
1003.36 1003.89 1004.33 1004.68 1004.92 1005.09 1005.33 1005.68 1006.09 1006.45 1006.77 1007.09 1007.45 1007.57 1007.84 1008.28 1008.53 1008.84 1009.04 1009.16 1009.48 1009.92 1010.28 1010.68 1011.04 1011.33 1011.77 1012.01 1012.24 1012.53 1012.65 1012.65 1012.45 1012.45 1012.53 1012.72 1012.89 1013.12 1013.36 1013.65 1013.97 1014.41
1003.16 1003.65 1004.16 1004.53 1004.80 1005.21 1005.41 1005.72 1006.01 1006.36 1006.53 1006.72 1007.09 1007.45 1007.89 1008.24 1008.45 1008.77 1008.97 1009.24 1009.53 1009.89 1010.21 1010.41 1010.68 1011.01 1011.57 1011.84 1012.09 1012.33 1012.48 1012.68 1012.57 1012.45 1012.36 1012.36 1012.57 1012.72 1012.97 1013.33 1014.24 1014.65
1003.04 1003.45 1003.92 1004.36 1004.68 1005.09 1005.57 1005.77 1005.92 1006.12 1006.45 1006.65 1006.92 1007.33 1007.77 1008.12 1008.36 1008.68 1008.89 1009.16 1009.41 1009.65 1010.04 1010.28 1010.21 1010.45 1011.04 1011.48 1011.84 1012.12 1012.28 1012.60 1012.48 1012.41 1012.28 1012.28 1012.24 1012.41 1012.68 1012.97 1013.89 1014.33
1002.80 1003.28 1003.72 1004.04 1004.41 1004.77 1005.28 1005.80 1006.01 1006.21 1006.48 1006.57 1006.80 1007.09 1007.36 1007.65 1008.01 1008.21 1008.68 1009.01 1009.12 1009.41 1009.77 1010.21 1010.12 1010.24 1010.65 1011.12 1011.60 1011.97 1012.28 1012.48 1012.36 1012.28 1012.24 1012.09 1012.04 1012.12 1012.33 1012.53 1013.12 1013.80
1002.45 1002.97 1003.41 1003.72 1004.12 1004.72 1005.12 1005.53 1005.97 1006.24 1006.36 1006.33 1006.80 1006.97 1007.33 1007.57 1007.72 1007.89 1008.09 1008.45 1008.89 1009.16 1009.48 1009.72 1009.77 1010.09 1010.41 1010.89 1011.28 1011.68 1012.24 1012.12 1011.97 1011.89 1011.89 1011.89 1011.89 1011.92 1012.12 1012.60 1012.89 1013.04
1002.09 1002.60 1003.21 1003.57 1003.97 1004.57 1005.01 1005.24 1005.60 1005.84 1006.09 1006.12 1006.53 1006.77 1007.01 1007.12 1007.24 1007.53 1007.77 1008.16 1008.57 1008.89 1009.09 1009.57 1009.68 1009.92 1010.28 1010.60 1011.04 1011.48 1011.57 1011.48 1011.48 1011.57 1011.65 1011.72 1011.80 1011.84 1012.09 1012.41 1012.60 1012.80
1001.92 1002.41 1002.97 1003.45 1003.92 1004.21 1004.41 1005.01 1005.48 1005.77 1005.84 1005.97 1006.21 1006.41 1006.60 1006.68 1007.01 1007.41 1007.68 1007.89 1008.16 1008.53 1008.80 1009.21 1009.36 1009.77 1010.21 1010.53 1010.84 1011.04 1011.21 1010.97 1011.01 1011.12 1011.57 1011.60 1011.72 1011.92 1011.97 1012.21 1012.45 1012.80
1001.65 1002.28 1002.72 1003.16 1003.65 1003.89 1004.04 1004.57 1005.01 1005.41 1005.72 1006.01 1006.16 1006.33 1006.60 1006.65 1007.01 1007.53 1008.04 1008.09 1008.12 1008.36 1008.60 1008.84 1009.16 1009.53 1009.92 1010.16 1010.48 1010.65 1010.72 1010.65 1010.68 1011.12 1011.41 1011.45 1011.48 1011.65 1012.09 1012.45 1012.65 1012.77
Thickness
5818 5815 5812 5810 5807 5805 5803 5800 5797 5794 5791 5790 5787 5785 5783 5781 5780 5777 5774 5770 5766 5763 5761 5758 5755 5753 5751 5749 5747 5745 5743 5742 5741 5741 5739 5736 5734 5734 5732 5731 5731 5730
5819 5817 5814 5811 5808 5806 5804 5802 5799 5796 5792 5791 5789 5787 5785 5782 5779 5776 5772 5768 5764 5762 5760 5757 5754 5752 5750 5748 5745 5742 5740 5738 5737 5738 5736 5733 5732 5732 5730 5730 5730 5728
5820 5817 5815 5811 5809 5806 5805 5803 5801 5797 5794 5791 5789 5787 5785 5782 5778 5774 5771 5767 5763 5761 5759 5756 5754 5751 5749 5747 5744 5740 5738 5735 5733 5735 5734 5731 5730 5729 5729 5729 5729 5727
5820 5819 5817 5813 5811 5808 5806 5804 5800 5798 5795 5792 5790 5788 5785 5783 5779 5774 5770 5767 5763 5760 5758 5755 5754 5751 5747 5745 5743 5739 5736 5733 5731 5731 5729 5729 5728 5726 5725 5726 5725 5724
5822 5820 5818 5815 5812 5809 5806 5803 5801 5799 5796 5793 5791 5789 5785 5782 5779 5775 5770 5767 5764 5760 5757 5754 5752 5750 5746 5742 5740 5737 5734 5732 5730 5729 5726 5724 5724 5724 5723 5722 5720 5719
5824 5822 5819 5816 5813 5809 5806 5804 5802 5800 5796 5794 5792 5788 5785 5781 5778 5776 5772 5769 5766 5762 5758 5754 5750 5749 5747 5743 5738 5735 5733 5731 5730 5728 5724 5721 5721 5721 5721 5719 5717 5715
5825 5823 5820 5817 5813 5810 5807 5805 5803 5800 5796 5795 5792 5787 5785 5782 5778 5776 5773 5770 5767 5764 5760 5756 5752 5750 5748 5743 5738 5733 5731 5729 5728 5725 5721 5719 5718 5716 5716 5715 5714 5712
5826 5824 5821 5817 5813 5811 5808 5807 5803 5799 5797 5796 5793 5790 5788 5785 5781 5778 5775 5770 5767 5763 5759 5756 5753 5750 5746 5742 5736 5731 5728 5727 5725 5722 5718 5716 5715 5713 5712 5712 5710 5709
5829 5826 5822 5818 5814 5812 5810 5808 5804 5801 5801 5799 5795 5793 5792 5789 5785 5781 5776 5771 5767 5762 5758 5753 5749 5746 5743 5739 5734 5730 5727 5724 5723 5721 5716 5714 5713 5711 5711 5710 5708 5706
5829 5827 5824 5819 5817 5815 5813 5812 5809 5806 5804 5801 5799 5797 5795 5792 5788 5784 5777 5772 5767 5762 5757 5752 5747 5743 5741 5738 5735 5732 5727 5723 5722 5720 5717 5714 5712 5711 5710 5709 5707 5705
5831 5828 5825 5821 5819 5819 5819 5818 5816 5812 5808 5805 5802 5800 5798 5794 5788 5784 5779 5773 5767 5762 5756 5751 5747 5742 5738 5735 5734 5733 5729 5725 5721 5719 5717 5715 5713 5712 5710 5709 5707 5705
5833 5830 5827 5824 5823 5823 5824 5823 5819 5815 5812 5809 5805 5802 5800 5795 5789 5784 5780 5773 5768 5762 5756 5751 5747 5742 5736 5733 5733 5733 5730 5726 5722 5719 5717 5715 5713 5711 5710 5708 5707 5704
5836 5834 5831 5828 5826 5826 5827 5825 5820 5816 5815 5812 5808 5804 5800 5795 5790 5785 5780 5774 5769 5763 5758 5752 5747 5743 5738 5734 5734 5734 5731 5727 5723 5720 5717 5716 5713 5712 5709 5708 5707 5704
5839 5838 5835 5832 5829 5829 5829 5825 5819 5817 5816 5813 5810 5805 5800 5796 5792 5786 5780 5775 5770 5765 5759 5754 5749 5743 5739 5736 5734 5734 5732 5727 5724 5720 5717 5715 5712 5710 5708 5707 5706 5704
5841 5839 5836 5833 5830 5831 5829 5824 5820 5817 5816 5815 5811 5806 5802 5798 5793 5787 5781 5775 5770 5765 5760 5755 5749 5745 5741 5737 5734 5733 5731 5728 5724 5720 5717 5714 5711 5708 5707 5706 5704 5702
5842 5838 5835 5832 5831 5829 5827 5823 5820 5818 5816 5814 5811 5806 5801 5797 5791 5786 5780 5775 5770 5765 5760 5755 5750 5745 5742 5737 5733 5731 5730 5727 5724 5721 5717 5714 5710 5707 5704 5703 5702 5699
5841 5837 5835 5831 5829 5827 5825 5822 5819 5817 5815 5812 5807 5802 5797 5793 5788 5783 5779 5774 5769 5764 5759 5754 5750 5745 5741 5735 5732 5729 5728 5726 5724 5721 5718 5714 5710 5706 5703 5700 5699 5697
5840 5837 5833 5830 5827 5825 5823 5819 5816 5813 5810 5806 5802 5798 5793 5789 5784 5779 5776 5772 5767 5763 5758 5753 5749 5745 5740 5734 5730 5727 5725 5724 5722 5720 5717 5714 5710 5706 5702 5699 5697 5695
5839 5835 5832 5828 5826 5823 5820 5817 5812 5807 5804 5800 5797 5794 5790 5785 5781 5777 5773 5769 5765 5760 5756 5751 5747 5742 5737 5732 5728 5725 5722 5720 5720 5718 5715 5713 5709 5706 5703 5698 5693 5689
5838 5834 5830 5825 5823 5819 5816 5813 5808 5805 5801 5798 5794 5790 5785 5781 5777 5773 5770 5766 5761 5756 5751 5748 5745 5740 5736 5731 5726 5723 5719 5716 5715 5714 5712 5711 5708 5705 5701 5695 5689 5683
5836 5832 5828 5824 5821 5817 5812 5808 5805 5802 5799 5795 5792 5788 5782 5778 5773 5769 5765 5761 5758 5754 5748 5745 5743 5739 5735 5729 5724 5719 5716 5712 5711 5710 5709 5708 5706 5703 5699 5695 5688 5680
5835 5830 5826 5823 5819 5815 5809 5805 5801 5798 5795 5791 5788 5784 5779 5775 5771 5767 5762 5759 5755 5751 5745 5742 5739 5737 5733 5728 5722 5716 5711 5708 5708 5706 5705 5704 5703 5701 5698 5693 5688 5681
5833 5828 5824 5822 5818 5811 5806 5802 5798 5794 5791 5788 5784 5779 5775 5772 5768 5765 5761 5757 5752 5748 5743 5739 5736 5732 5730 5726 5720 5713 5708 5707 5706 5705 5703 5701 5701 5699 5695 5690 5685 5682
5832 5827 5822 5818 5814 5809 5804 5800 5795 5791 5788 5786 5781 5776 5773 5770 5767 5764 5759 5754 5750 5745 5740 5736 5732 5727 5724 5722 5717 5711 5708 5707 5705 5702 5700 5698 5696 5694 5690 5685 5681 5678
5830 5824 5819 5815 5810 5807 5804 5799 5793 5789 5786 5783 5779 5774 5771 5769 5765 5759 5754 5751 5747 5742 5737 5733 5729 5723 5720 5717 5714 5709 5706 5705 5703 5699 5696 5694 5693 5689 5685 5681 5677 5672
5826 5820 5816 5812 5807 5804 5802 5797 5791 5787 5783 5779 5775 5771 5767 5764 5760 5753 5747 5745 5742 5738 5734 5730 5726 5721 5717 5715 5713 5708 5705 5702 5699 5695 5691 5689 5688 5684 5679 5675 5671 5669